CENTISPACE-1 S4 (53758 NORAD) Tracking and Keplerian Element Data

This shows tracking and keplerian element data for the satellite.

Feedback or suggestion? Click here.




ElementValue
Catalog53758
NameCENTISPACE-1 S4
Epoch Orbit1108
Epoch Day325.1172307
Epoch Year2022
RAAN34.0394
Inclination53.5316
Eccentricity0.0011645
Argument of Perigee106.3759
Mean Anonmoly253.8486
Mean Motion14.57816898
Decay Rate6.22E-06
L11 53758U 22108B 22325.11723070 .00000622 00000+0 17497-3 0 9996
L22 53758 53.5316 34.0394 0011645 106.3759 253.8486 14.57816898 11087



Live tracking and technical data element details for CENTISPACE-1 S4 (NORAD 53758). CENTISPACE-1 S4 can be tracked NOW for your location showing map with azimuth and elevation plus other details from your city location.







IsCatalogInMostPopularTable: catalog: 53758, numindb: -1

Insert: records affected: 1


GetName: 53758 CENTISPACE-1 S4

Hit Count: inserted at: Thu, 08 Dec 2022 10:27:31 GMT